Torna al catalogo

STARLINK-3940

AttivoComunicazioniVLEO
NORAD 52540·PAYLOAD·🇺🇸 United States

Lanciato May 13, 2022 da Vandenberg Space Force Base

Loading…

Prossimi Passaggi (prossime 24 ore)

TLE

AggiornatoSource: CelesTrak SupGP

Epoca: Sep 15, 2026, 02:38 UTC

1 52540C 22051H   26258.11020833  .00042174  00000+0  12462-2 0  2589
2 52540  53.1586 347.2589 0001200  84.7693 354.2443 15.34364202    10

Traccia STARLINK-3940 in tempo reale con AllMySat

Download on the App Store